Location: San Antonio
(29.4240°N, 98.4930°W)
Time: 10:34:56
(UTC-05:00)

Envisat - Pass Details

Date: 21 June 2024
Orbit: 762 x 764 km, 98.3° (Epoch: 12 July)

Event Time Altitude Azimuth Distance (km) Brightness Sun altitude
Rises 03:24:13 0° 41° (NE) 3,224 7.3 -31.1°
Reaches altitude 10° 03:28:15 10° 73° (ENE) 2,293 6.0 -30.6°
Maximum altitude 03:29:59 12° 93° (E) 2,174 5.6 -30.4°
Drops below altitude 10° 03:31:44 10° 114° (ESE) 2,289 5.5 -30.3°
Enters shadow 03:31:49 10° 115° (ESE) 2,300 5.5 -30.2°
